TIANMU-1 14

Last updated on Sun Oct 06 2024 00:02:18 GMT+0000 (Coordinated Universal Time)

1 58648U 23205D 24279.51231357 .00017064 00000+0 85931-3 0 9990 2 58648 97.3911 301.5662 0010220 12.7286 347.4204 15.17210583 43214
UTC large
Height (km)
Speed (km/s)
/
Latitude / Longitude
Inclination (degrees)
Orbital Period (minutes)
Azimuth
Elevation
Range (km)
Doppler Factor

Next 0 passes for location: London (51.5072 / 0.1276)

Sorry there are no passes over London.